Change the Weather History Date:

Sunday, April 28, 2013

  Actual Average (KNEW) Record (KNEW)
Temperature  
Mean Temperature 70 °F 72 °F  
Max Temperature 78 °F 81 °F 91 °F (2002)
Min Temperature 64 °F 63 °F 44 °F (1992)
Degree Days  
Heating Degree Days 0 0  
Month to date heating degree days 32  
Since 1 July heating degree days 1277  
Cooling Degree Days 4 8  
Month to date cooling degree days 142  
Year to date cooling degree days 242  
Growing Degree Days 20 (Base 50)    
Moisture  
Dew Point 67 °F    
Average Humidity 93    
Maximum Humidity 100    
Minimum Humidity 76    
Precipitation  
Precipitation 0.75 in 0.16 in 3.62 in (2002)
Month to date precipitation 4.29  
Year to date precipitation 19.29  
Snow  
Snow 0.00 in - - ()
Month to date snowfall  
Since 1 July snowfall  
Snow Depth -    
Sea Level Pressure  
Sea Level Pressure 30.02 in    
Wind  
Wind Speed 2 mph (South)    
Max Wind Speed 12 mph    
Max Gust Speed 16 mph    
Visibility 6 miles    
Events Rain , Thunderstorm    
T = Trace of Precipitation, MM = Missing Value Source: NWS Daily Summary

Daily Weather History Graph

Daily Weather History Graph

Search for Another Location

Airport or City:

Trip Planner

Search our weather history database for the weather conditions in past years. The results will help you decide how hot, cold, wet, or windy it might be!

Date:

Astronomy

Apr. 28, 2013 Rise Set
Actual Time 6:18 AM CDT 7:35 PM CDT
Civil Twilight 5:53 AM CDT 8:00 PM CDT
Nautical Twilight 5:23 AM CDT 8:30 PM CDT
Astronomical Twilight 4:51 AM CDT 9:02 PM CDT
Moon 10:58 PM CDT (4/28) 8:42 AM CDT (4/28)
Length of Visible Light 14h 07m
Length of Day
13h 17m
Waning Gibbous, 88% of the Moon is Illuminated
Apr 28
Waning Gibbous
May 2
Last Quarter
May 9
New
May 17
First Quarter
May 24
Full

Hourly Weather History & Observations

Time (CDT) Temp. Dew Point Humidity Pressure Visibility Wind Dir Wind Speed Gust Speed Precip Events Conditions
12:34 AM 66.2 °F 66.2 °F 100% 30.06 in 1.5 mi South 3.5 mph - N/A   Partly Cloudy
12:47 AM 66.2 °F 66.2 °F 100% 30.06 in 2.0 mi Calm Calm - N/A   Mostly Cloudy
12:53 AM 68.0 °F 66.9 °F 96% 30.06 in 4.0 mi Calm Calm - N/A   Mostly Cloudy
1:07 AM 66.2 °F 66.2 °F 100% 30.05 in 1.8 mi Calm Calm - N/A   Overcast
1:19 AM 66.2 °F 66.2 °F 100% 30.05 in 3.0 mi Calm Calm - N/A   Overcast
1:53 AM 68.0 °F 66.9 °F 96% 30.06 in 8.0 mi Calm Calm - N/A   Overcast
2:53 AM 68.0 °F 66.9 °F 96% 30.04 in 7.0 mi Calm Calm - N/A   Overcast
3:03 AM 66.2 °F 66.2 °F 100% 30.03 in 7.0 mi Calm Calm - N/A   Mostly Cloudy
3:53 AM 66.9 °F 66.0 °F 97% 30.02 in 7.0 mi Calm Calm - N/A   Overcast
4:19 AM 68.0 °F 66.2 °F 94% 30.01 in 8.0 mi Calm Calm - N/A   Mostly Cloudy
4:34 AM 66.2 °F 66.2 °F 100% 30.01 in 7.0 mi Calm Calm - N/A   Mostly Cloudy
4:49 AM 66.2 °F 66.2 °F 100% 30.01 in 8.0 mi Calm Calm - N/A   Overcast
4:53 AM 66.9 °F 66.0 °F 97% 30.01 in 8.0 mi Calm Calm - N/A   Overcast
5:09 AM 66.2 °F 66.2 °F 100% 30.01 in 5.0 mi Calm Calm - N/A   Overcast
5:32 AM 69.8 °F 68.0 °F 94% 30.01 in 5.0 mi Calm Calm - N/A   Overcast
5:53 AM 69.1 °F 66.9 °F 93% 30.01 in 8.0 mi Calm Calm - N/A   Overcast
6:06 AM 69.8 °F 69.8 °F 100% 30.01 in 4.0 mi SSE 4.6 mph - N/A   Mostly Cloudy
6:31 AM 71.6 °F 71.6 °F 100% 30.02 in 3.0 mi SSE 4.6 mph - N/A   Mostly Cloudy
6:53 AM 72.0 °F 71.1 °F 97% 30.03 in 4.0 mi South 5.8 mph - N/A   Overcast
7:53 AM 73.0 °F 72.0 °F 96% 30.03 in 6.0 mi South 4.6 mph - N/A   Overcast
8:53 AM 75.0 °F 72.0 °F 90% 30.04 in 9.0 mi SSW 5.8 mph - 0.01 in   Overcast
9:07 AM 75.2 °F 71.6 °F 89% 30.03 in 10.0 mi SSW 9.2 mph 16.1 mph N/A   Overcast
9:23 AM 75.2 °F 69.8 °F 83% 30.03 in 10.0 mi SSW 11.5 mph - N/A   Mostly Cloudy
9:36 AM 75.2 °F 69.8 °F 83% 30.03 in 10.0 mi SSW 10.4 mph - N/A   Scattered Clouds
9:53 AM 75.0 °F 70.0 °F 84% 30.03 in 10.0 mi South 8.1 mph - N/A   Scattered Clouds
10:53 AM 75.9 °F 68.0 °F 76% 30.02 in 10.0 mi SSW 10.4 mph - N/A   Mostly Cloudy
11:18 AM 69.8 °F 64.4 °F 83% 30.04 in 5.0 mi Variable 4.6 mph - 0.01 in Rain Light Rain
11:33 AM 68.0 °F 64.4 °F 88% 30.04 in 3.0 mi Calm Calm - 0.06 in Rain , Thunderstorm Rain
11:53 AM 66.9 °F 64.9 °F 93% 30.05 in 6.0 mi Variable 3.5 mph - 0.07 in Rain , Thunderstorm Light Thunderstorms and Rain
11:58 AM 66.2 °F 64.4 °F 94% 30.05 in 1.8 mi South 4.6 mph - 0.05 in Rain , Thunderstorm Heavy Thunderstorms and Rain
12:13 PM 66.2 °F 64.4 °F 94% 30.05 in 3.0 mi SSW 3.5 mph - 0.10 in Rain , Thunderstorm Rain
12:44 PM 66.2 °F 64.4 °F 94% 30.04 in 2.5 mi Calm Calm - 0.18 in Rain Rain
12:53 PM 66.0 °F 64.9 °F 96% 30.03 in 2.5 mi South 3.5 mph - 0.21 in Rain Rain
1:10 PM 66.2 °F 64.4 °F 94% 30.00 in 4.0 mi NNE 3.5 mph - 0.04 in Rain Light Rain
1:53 PM 70.0 °F 68.0 °F 93% 30.00 in 10.0 mi South 5.8 mph - 0.05 in Rain Light Rain
2:53 PM 73.9 °F 66.9 °F 79% 29.99 in 10.0 mi South 4.6 mph - 0.00 in   Mostly Cloudy
3:53 PM 75.0 °F 68.0 °F 79% 29.97 in 10.0 mi North 3.5 mph - N/A   Overcast
4:53 PM 72.0 °F 69.1 °F 91% 29.96 in 2.0 mi NNW 4.6 mph - 0.09 in Rain Rain
5:02 PM 71.6 °F 64.4 °F 78% 29.96 in 10.0 mi NNE 3.5 mph - 0.00 in Rain Light Rain
5:53 PM 70.0 °F 69.1 °F 97% 29.96 in 3.0 mi NNW 3.5 mph - 0.04 in Rain Light Rain
6:53 PM 66.9 °F 66.0 °F 97% 29.96 in 10.0 mi Calm Calm - 0.01 in Rain Light Rain
7:53 PM 66.9 °F 64.9 °F 93% 29.97 in 8.0 mi Calm Calm - 0.06 in Rain Rain
8:53 PM 64.9 °F 64.9 °F 100% 30.00 in 7.0 mi SSE 8.1 mph - 0.17 in Rain Light Rain
9:53 PM 64.9 °F 63.0 °F 93% 29.99 in 10.0 mi SSE 4.6 mph - 0.04 in Rain Light Rain
10:53 PM 64.0 °F 63.0 °F 96% 29.98 in 10.0 mi Calm Calm - 0.00 in Rain Light Rain
11:53 PM 64.0 °F 63.0 °F 96% 29.98 in 10.0 mi SE 5.8 mph - 0.00 in   Mostly Cloudy